{"data":{"norad_id":60110,"intl_designator":"2024-117V","name":"STARLINK-32001","alt_names":[],"object_type":"PAYLOAD","status":"ACTIVE","operator":null,"country":"US","launch_date":"2024-06-23","launch_site_code":"AFETR","launch_vehicle":null,"mission":null,"orbit_class":"UNKNOWN","rcs_meters":null,"size_class":null,"mass_kg":null,"dimensions":null,"purposes":["comms"],"wikipedia_slug":null,"has_3d_model":false,"image_url":null,"decayed_at":null,"tle_current":{"epoch":"2026-09-21T11:30:22.305312Z","epoch_age_seconds":92981,"freshness":"FRESH","line1":"1 60110U 24117V   26264.47942483 -.00000629  00000+0 -74821-5 0  9999","line2":"2 60110  53.1585 204.7993 0001259  93.2150 266.8997 15.34393980126908","mean_motion":15.3439398,"eccentricity":0.0001259,"inclination_deg":53.1585,"raan_deg":204.7993,"arg_perigee_deg":93.215,"mean_anomaly_deg":266.8997,"bstar":-7.4821e-6,"rev_number":12690,"period_min":93.8481262811,"perigee_km":461.85986893532,"apogee_km":463.5823970132,"semimajor_km":6840.8581329743,"source":"CELESTRAK","updated_at":"2026-09-22T09:00:49.153760Z"}}}